Wind_Speed
58 54 51 48 46 45 46 49 52 55 56 58 60 61 62 64 66 67 68 70 72 75 76 77 79 83 87 90 96 100 105 111 117 127 136 133 132 130 124 113 113 115 112
56 52 48 48 47 46 47 48 51 55 56 58 60 62 63 64 66 69 70 72 72 73 72 71 73 76 80 83 86 92 97 106 112 117 121 128 140 139 133 131 125 120 117
55 53 50 50 51 51 52 53 54 55 58 59 61 64 65 65 65 66 68 69 70 71 71 71 73 73 72 75 78 82 87 92 101 106 112 117 119 126 134 140 136 131 127
55 53 51 51 51 52 54 55 56 57 59 61 62 64 66 66 67 67 67 67 67 69 70 68 69 70 72 74 76 77 81 83 89 96 98 103 109 113 115 120 124 135 134
55 53 50 49 49 50 52 53 55 55 56 58 59 60 62 64 66 66 66 67 68 69 69 70 70 70 71 73 73 74 76 78 81 85 87 93 97 101 105 110 113 114 130
54 51 50 49 49 50 50 51 52 53 54 55 56 57 58 60 62 63 63 64 66 68 69 69 69 69 68 69 70 70 71 71 75 76 82 87 91 94 96 99 102 105 108
55 52 51 49 48 48 48 49 49 50 52 53 54 54 55 57 59 60 59 60 62 64 66 67 66 66 67 65 65 65 66 64 66 69 74 82 87 90 90 91 92 94 96
56 53 50 47 44 42 41 42 44 46 49 50 49 50 53 54 54 55 55 56 59 60 61 61 62 63 63 62 63 60 61 60 60 62 68 70 75 81 82 84 84 85 86
55 54 48 42 41 39 37 36 38 40 40 41 42 44 47 48 48 50 51 54 56 56 56 57 59 58 56 58 55 58 57 57 58 58 62 66 67 70 73 75 75 76 78
52 49 44 39 38 37 35 34 35 35 35 34 35 36 39 41 43 45 47 47 47 48 51 52 52 51 52 52 52 53 50 54 55 55 57 59 62 64 66 66 68 69 70
50 46 41 36 36 35 33 33 33 32 32 33 34 35 36 37 39 41 42 43 43 45 46 46 47 47 48 48 48 48 48 50 51 50 51 52 54 56 59 61 62 64 66
46 42 39 36 34 33 31 31 30 30 32 31 29 29 29 31 32 34 36 37 38 39 40 42 42 43 43 43 44 44 45 45 46 46 47 48 50 53 55 56 57 57 58
42 38 36 34 33 32 28 26 26 26 26 26 25 25 27 28 29 29 31 32 33 35 36 37 38 39 39 38 38 39 41 42 43 42 42 42 42 44 45 46 48 49 51
39 36 34 32 30 28 24 21 22 22 22 22 22 22 23 24 25 27 29 29 30 31 32 32 32 33 32 34 35 36 37 37 38 37 36 37 38 38 40 41 42 44 46
35 35 33 29 27 24 20 20 20 19 19 18 17 18 19 22 25 28 28 28 29 31 31 31 31 31 30 32 33 33 34 33 32 32 33 33 33 34 34 36 38 39 41
34 31 29 25 23 21 19 19 19 18 17 16 15 15 18 23 26 27 28 29 30 30 31 32 33 32 31 30 30 31 31 31 30 30 30 30 31 31 32 34 35 36 35
32 28 24 22 19 18 18 18 18 17 16 14 13 14 19 24 26 27 29 29 30 30 31 32 33 34 33 32 30 29 30 30 29 28 29 29 28 29 30 31 31 30 34
29 24 21 20 18 17 17 18 17 17 16 14 13 16 20 24 27 28 29 29 29 30 31 32 31 31 30 29 30 30 29 29 29 29 27 26 27 28 30 31 28 30 32
26 21 20 18 17 17 17 18 18 17 17 15 15 18 23 26 28 29 30 30 31 31 32 30 31 31 31 31 30 30 30 29 28 26 25 26 27 29 28 27 27 27 28
25 20 20 18 17 17 17 18 19 19 18 16 16 20 25 28 30 32 32 33 34 35 36 36 37 35 33 31 29 30 29 27 25 26 26 26 28 29 30 26 25 29 30
25 21 19 19 18 17 18 18 19 20 20 18 19 24 27 30 31 34 35 36 36 38 38 37 34 33 32 30 30 29 27 26 26 26 26 26 29 31 31 29 32 32 31
25 22 20 19 18 18 18 18 20 22 22 20 22 26 30 32 33 35 36 37 36 37 37 36 35 33 32 31 29 27 27 28 27 25 24 25 26 29 30 33 31 30 29
25 23 21 20 19 19 19 19 21 24 25 23 25 29 33 34 35 36 38 38 38 37 36 34 32 32 32 30 29 28 26 24 24 25 28 30 31 31 32 32 32 32 32
27 25 23 22 21 22 21 20 22 26 28 26 29 32 35 36 36 38 38 38 37 37 36 34 34 33 30 29 27 27 25 24 27 29 30 32 33 32 31 32 33 34 34
27 26 25 25 24 24 24 23 24 29 31 30 32 34 36 38 39 39 40 39 38 37 34 34 34 33 31 31 30 26 25 25 25 28 30 31 31 29 30 33 35 36 36
25 25 25 26 26 27 27 26 27 32 35 35 36 37 39 41 41 43 42 41 40 39 38 38 38 35 33 30 28 26 25 24 25 28 29 30 33 34 35 35 36 39 39
Wind_Direction
304 296 289 283 278 272 266 263 260 258 257 257 256 254 253 252 252 251 250 249 248 247 246 247 247 245 245 243 240 240 240 240 240 241 241 240 240 241 240 239 239 242 249
304 296 289 283 278 272 268 263 260 258 258 258 258 256 254 253 251 249 249 250 250 249 249 248 248 246 246 245 244 243 240 240 241 240 241 243 242 242 242 243 241 242 244
306 297 290 284 279 274 268 263 259 258 259 258 258 257 256 254 253 252 250 250 250 250 251 250 249 249 248 248 247 246 244 242 242 243 243 244 246 245 245 244 244 244 243
309 300 293 287 280 275 270 265 262 258 257 256 255 255 255 255 254 253 252 251 250 250 250 250 250 249 248 247 247 248 248 245 242 243 244 243 245 245 246 247 248 246 245
310 303 297 289 283 276 271 267 263 259 256 255 253 252 252 253 253 253 252 252 252 251 251 250 249 247 247 246 247 248 248 246 243 241 241 241 241 244 246 247 248 249 247
312 305 298 291 285 279 273 268 263 260 258 255 253 252 251 251 251 250 249 248 248 248 247 247 247 247 247 247 246 246 247 247 243 241 238 237 238 241 244 246 247 249 250
314 308 301 293 286 280 274 271 267 263 260 256 254 252 251 249 249 249 247 246 246 245 245 245 246 246 247 248 248 247 247 247 245 243 242 239 238 240 243 246 247 249 250
315 310 304 296 291 284 277 272 268 264 262 260 257 254 253 251 250 249 247 246 246 245 245 245 245 246 247 248 248 248 247 245 244 241 239 241 240 241 243 245 247 249 251
316 312 304 299 294 288 282 275 270 267 265 263 260 257 254 252 249 247 245 243 243 243 244 244 244 245 246 246 244 243 243 242 242 241 240 241 240 242 243 245 247 249 251
316 309 303 300 293 289 284 279 274 271 267 264 260 254 251 248 246 244 243 242 241 240 240 240 242 241 240 240 239 240 237 238 238 237 239 239 240 241 243 244 246 248 251
315 308 304 299 293 289 285 280 277 274 270 263 258 256 253 251 247 245 242 239 236 234 233 233 234 234 234 234 235 235 232 231 234 235 237 238 238 239 241 243 245 247 251
314 307 304 301 296 291 287 283 280 273 267 264 260 256 251 246 242 239 235 231 228 227 226 226 226 227 229 229 228 229 230 229 231 232 233 234 234 236 238 242 246 250 254
313 307 302 298 295 292 290 284 273 266 262 259 258 253 250 245 237 229 222 218 215 215 217 218 221 222 223 222 222 220 222 224 226 228 230 232 235 237 241 243 247 251 255
311 306 301 299 295 291 290 277 267 261 260 258 257 253 245 235 225 213 206 204 206 210 212 212 211 213 214 215 215 216 219 221 222 224 225 227 230 233 237 242 247 252 257
310 305 301 298 294 289 284 272 264 260 260 260 256 246 233 222 208 200 198 199 203 203 201 200 199 198 202 206 209 209 211 212 214 217 222 227 230 235 242 247 251 256 262
308 302 297 294 290 286 279 269 264 260 259 257 251 235 218 207 199 195 196 196 195 195 196 195 190 190 193 199 202 203 204 208 212 216 223 229 233 238 244 251 257 261 265
306 299 293 290 285 280 273 266 263 260 255 252 243 222 207 200 194 194 193 192 192 194 192 192 189 189 192 196 200 204 208 210 214 220 223 228 235 244 252 257 259 261 266
303 297 290 287 284 276 266 261 258 254 246 241 231 214 203 196 194 192 190 190 192 192 192 190 194 196 195 198 204 208 211 212 214 219 225 232 242 246 248 254 261 265 267
299 293 288 283 281 272 263 258 253 247 240 232 221 206 200 196 193 189 190 192 192 193 191 191 196 197 199 201 205 205 208 213 220 225 234 244 244 242 248 256 267 275 277
295 290 285 281 276 268 262 258 249 240 233 226 214 199 196 195 192 190 190 192 193 194 193 194 198 199 201 202 205 211 215 219 223 233 241 244 240 242 249 258 267 274 269
289 285 279 275 271 264 260 257 244 233 227 220 204 195 193 193 194 193 193 195 197 200 203 204 204 201 201 205 212 216 220 226 236 238 242 242 241 241 254 265 266 268 263
286 282 275 269 264 260 257 254 240 227 221 215 200 195 194 193 195 197 197 198 201 203 204 203 202 202 204 209 213 219 225 234 236 241 241 246 247 249 254 261 261 258 261
282 277 269 264 257 254 253 249 236 222 216 210 200 195 193 194 196 198 198 199 200 202 206 207 205 207 209 214 220 227 230 232 235 241 243 247 249 252 257 258 258 255 259
275 270 263 257 252 249 249 244 231 217 211 206 200 196 194 195 196 198 199 200 202 205 206 206 208 210 216 216 219 225 231 240 242 243 243 246 252 256 254 257 259 258 262
273 265 257 251 248 245 243 239 226 214 207 204 200 198 195 194 195 198 200 202 204 207 208 207 209 213 216 220 228 233 240 241 243 246 247 251 252 256 257 259 257 258 264
271 261 253 247 244 240 236 232 221 210 204 202 201 198 195 194 196 199 202 205 207 209 210 212 216 219 223 227 230 235 236 241 245 241 248 249 251 256 258 260 260 261 265
Height
10297 10288 10281 10279 10277 10274 10274 10274 10274 10276 10279 10282 10285 10289 10293 10296 10300 10306 10310 10314 10321 10326 10332 10337 10343 10349 10356 10363 10371 10378 10385 10390 10399 10408 10417 10425 10434 10447 10456 10465 10470 10473 10473
10279 10272 10266 10262 10260 10258 10257 10257 10257 10257 10259 10262 10265 10268 10273 10276 10280 10285 10289 10294 10300 10304 10310 10317 10322 10327 10333 10338 10344 10351 10359 10363 10370 10379 10386 10394 10404 10414 10424 10436 10446 10450 10457
10263 10256 10250 10245 10241 10239 10238 10238 10238 10239 10240 10242 10244 10246 10250 10254 10259 10264 10270 10275 10280 10285 10289 10296 10300 10306 10312 10316 10321 10326 10332 10337 10344 10354 10362 10371 10379 10385 10398 10405 10416 10424 10435
10246 10239 10231 10226 10222 10218 10216 10216 10217 10217 10218 10221 10224 10225 10227 10231 10236 10240 10247 10253 10260 10265 10269 10276 10280 10285 10289 10292 10298 10303 10307 10314 10321 10329 10338 10348 10355 10359 10370 10376 10384 10393 10404
10228 10221 10213 10206 10203 10199 10196 10195 10195 10196 10196 10198 10201 10204 10207 10210 10213 10218 10225 10231 10237 10243 10248 10252 10257 10262 10268 10272 10278 10283 10285 10290 10299 10308 10317 10324 10329 10337 10345 10351 10359 10366 10376
10211 10204 10196 10188 10183 10179 10177 10175 10175 10175 10176 10177 10179 10182 10185 10189 10192 10198 10205 10212 10217 10221 10226 10230 10235 10242 10247 10251 10257 10263 10267 10272 10280 10287 10294 10301 10308 10315 10323 10330 10337 10345 10353
10192 10185 10177 10169 10163 10160 10158 10155 10154 10155 10154 10156 10157 10161 10164 10169 10173 10177 10185 10192 10196 10201 10204 10209 10216 10222 10226 10233 10239 10245 10249 10256 10262 10270 10277 10282 10289 10295 10304 10313 10319 10326 10333
10174 10166 10159 10152 10146 10142 10140 10138 10137 10135 10135 10137 10140 10143 10145 10149 10155 10161 10167 10173 10176 10181 10187 10193 10200 10205 10210 10216 10221 10229 10234 10240 10247 10254 10259 10266 10272 10279 10285 10293 10301 10307 10313
10158 10149 10142 10137 10131 10127 10125 10123 10121 10120 10121 10122 10123 10126 10128 10132 10138 10143 10150 10154 10157 10164 10171 10176 10183 10190 10196 10200 10209 10212 10220 10226 10231 10238 10243 10250 10258 10264 10269 10278 10285 10290 10296
10145 10136 10129 10124 10118 10114 10112 10110 10108 10108 10108 10109 10110 10111 10113 10116 10121 10126 10131 10137 10143 10150 10156 10162 10169 10176 10181 10187 10193 10198 10209 10211 10218 10225 10231 10237 10244 10251 10258 10265 10270 10275 10280
10130 10123 10117 10112 10106 10103 10101 10097 10096 10096 10095 10095 10097 10098 10101 10105 10109 10113 10118 10124 10130 10136 10143 10150 10156 10162 10167 10174 10180 10186 10194 10201 10206 10213 10220 10226 10233 10239 10246 10252 10256 10260 10263
10117 10110 10104 10099 10095 10092 10089 10087 10085 10084 10083 10084 10085 10087 10090 10092 10096 10100 10105 10111 10118 10125 10132 10139 10145 10151 10158 10164 10170 10177 10183 10191 10198 10204 10209 10215 10221 10227 10233 10239 10244 10248 10251
10104 10098 10093 10089 10084 10081 10079 10077 10075 10074 10074 10075 10076 10078 10080 10083 10086 10090 10096 10102 10110 10117 10123 10129 10136 10142 10149 10156 10162 10169 10176 10183 10189 10196 10202 10208 10214 10220 10225 10229 10233 10236 10238
10093 10087 10082 10077 10074 10071 10070 10069 10067 10067 10067 10068 10069 10070 10072 10075 10079 10084 10090 10097 10104 10110 10117 10124 10131 10137 10144 10150 10157 10164 10170 10177 10184 10189 10195 10201 10206 10212 10215 10219 10223 10225 10226
10083 10077 10071 10068 10064 10063 10062 10061 10060 10060 10062 10062 10063 10064 10066 10070 10075 10080 10086 10093 10099 10106 10112 10119 10126 10132 10140 10146 10153 10159 10165 10172 10178 10184 10189 10195 10200 10204 10208 10210 10212 10214 10214
10072 10068 10062 10059 10056 10055 10055 10054 10054 10055 10056 10057 10058 10059 10063 10067 10072 10077 10083 10089 10095 10102 10109 10116 10122 10129 10136 10143 10149 10156 10162 10168 10173 10179 10184 10189 10193 10196 10199 10201 10202 10203 10203
10061 10059 10054 10051 10050 10048 10048 10048 10049 10051 10052 10053 10054 10056 10060 10065 10069 10075 10081 10087 10094 10101 10107 10114 10120 10126 10133 10139 10146 10152 10158 10164 10169 10174 10179 10182 10185 10188 10190 10192 10193 10194 10195
10052 10049 10046 10043 10042 10041 10042 10042 10044 10046 10047 10049 10050 10053 10057 10062 10068 10074 10080 10086 10093 10099 10105 10112 10119 10125 10131 10137 10143 10149 10154 10160 10164 10169 10172 10175 10178 10180 10182 10184 10186 10187 10187
10043 10040 10037 10036 10035 10034 10035 10036 10038 10040 10043 10045 10047 10050 10055 10060 10066 10072 10079 10086 10092 10098 10104 10111 10117 10122 10128 10134 10140 10145 10150 10154 10159 10162 10165 10168 10170 10173 10176 10178 10178 10179 10179
10033 10031 10029 10028 10028 10027 10028 10030 10033 10035 10038 10040 10043 10047 10052 10058 10064 10070 10076 10083 10089 10095 10101 10106 10112 10118 10125 10131 10136 10141 10145 10150 10153 10156 10159 10161 10164 10167 10170 10171 10172 10171 10171
10023 10022 10021 10020 10020 10020 10020 10023 10026 10029 10032 10035 10039 10043 10049 10055 10061 10067 10073 10079 10085 10091 10097 10104 10110 10116 10121 10127 10132 10136 10140 10144 10147 10150 10153 10156 10158 10161 10164 10164 10164 10163 10162
10013 10012 10012 10011 10012 10012 10013 10016 10019 10022 10026 10031 10035 10039 10045 10052 10058 10064 10071 10077 10083 10089 10095 10101 10107 10112 10117 10122 10127 10131 10134 10138 10141 10145 10148 10150 10153 10155 10155 10155 10155 10155 10155
10003 10002 10003 10003 10004 10004 10006 10009 10012 10016 10021 10027 10030 10036 10042 10048 10054 10061 10067 10074 10080 10086 10092 10098 10103 10108 10112 10117 10121 10125 10129 10133 10136 10140 10142 10144 10145 10146 10146 10147 10147 10147 10147
9991 9991 9992 9993 9995 9996 9998 10001 10004 10009 10015 10020 10025 10031 10037 10043 10050 10057 10063 10070 10076 10082 10088 10094 10099 10103 10108 10112 10116 10120 10124 10127 10129 10131 10133 10134 10136 10137 10138 10139 10139 10139 10139
9978 9979 9981 9982 9984 9986 9989 9992 9996 10002 10008 10014 10019 10026 10032 10039 10046 10053 10059 10065 10071 10077 10083 10089 10093 10097 10101 10106 10110 10114 10118 10120 10121 10123 10125 10126 10128 10130 10131 10130 10130 10131 10131
9965 9966 9968 9971 9973 9976 9979 9983 9988 9994 10001 10007 10013 10020 10027 10034 10041 10048 10054 10060 10066 10071 10077 10082 10087 10091 10096 10100 10104 10107 10109 10111 10113 10115 10117 10119 10120 10121 10121 10121 10122 10122 10122